Time,TemperatureF,DewpointF,PressureIn,WindDirection,WindDirectionDegrees,WindSpeedMPH,WindSpeedGustMPH,Humidity,HourlyPrecipIn,Conditions,Clouds,dailyrainin,SolarRadiationWatts/m^2,SoftwareType,DateUTC
2013-09-08 00:03:00,69.0,45.0,-100.00,West,261,14.0,25.0,42,0.00,,,0.00,0.000000,,2013-09-08 06:03:00,
2013-09-08 00:13:00,69.0,45.0,-100.00,West,261,14.0,25.0,42,0.00,,,0.00,0.000000,,2013-09-08 06:13:00,
2013-09-08 00:21:00,69.0,45.0,-100.00,West,261,14.0,25.0,42,0.00,,,0.00,0.000000,,2013-09-08 06:21:00,
2013-09-08 00:33:00,69.0,45.0,-100.00,West,261,14.0,25.0,42,0.00,,,0.00,0.000000,,2013-09-08 06:33:00,
2013-09-08 00:53:00,67.0,44.0,-100.00,WNW,284,2.0,18.0,44,0.00,,,0.00,0.000000,,2013-09-08 06:53:00,
2013-09-08 01:01:00,67.0,44.0,-100.00,WNW,284,2.0,18.0,44,0.00,,,0.00,0.000000,,2013-09-08 07:01:00,
2013-09-08 01:12:00,67.0,44.0,-100.00,WNW,284,2.0,18.0,44,0.00,,,0.00,0.000000,,2013-09-08 07:12:00,
2013-09-08 01:23:00,67.0,44.0,-100.00,WNW,284,2.0,18.0,44,0.00,,,0.00,0.000000,,2013-09-08 07:23:00,
2013-09-08 01:31:00,67.0,44.0,-100.00,WNW,284,2.0,18.0,44,0.00,,,0.00,0.000000,,2013-09-08 07:31:00,
2013-09-08 01:52:00,66.0,45.0,-100.00,ESE,115,7.0,10.0,46,0.00,,,0.00,0.000000,,2013-09-08 07:52:00,
2013-09-08 02:02:00,66.0,45.0,-100.00,ESE,115,7.0,10.0,46,0.00,,,0.00,0.000000,,2013-09-08 08:02:00,
2013-09-08 02:11:00,66.0,45.0,-100.00,ESE,115,7.0,10.0,46,0.00,,,0.00,0.000000,,2013-09-08 08:11:00,
2013-09-08 02:22:00,66.0,45.0,-100.00,ESE,115,7.0,10.0,46,0.00,,,0.00,0.000000,,2013-09-08 08:22:00,
2013-09-08 02:32:00,66.0,45.0,-100.00,ESE,115,7.0,10.0,46,0.00,,,0.00,0.000000,,2013-09-08 08:32:00,
2013-09-08 02:52:00,65.0,45.0,-100.00,ENE,72,7.0,14.0,49,0.00,,,0.00,0.000000,,2013-09-08 08:52:00,
2013-09-08 03:02:00,65.0,45.0,-100.00,ENE,72,7.0,14.0,49,0.00,,,0.00,0.000000,,2013-09-08 09:02:00,
2013-09-08 03:11:00,65.0,45.0,-100.00,ENE,72,7.0,14.0,49,0.00,,,0.00,0.000000,,2013-09-08 09:11:00,
2013-09-08 03:22:00,65.0,45.0,-100.00,ENE,72,7.0,14.0,49,0.00,,,0.00,0.000000,,2013-09-08 09:22:00,
2013-09-08 03:33:00,65.0,45.0,-100.00,ENE,72,7.0,14.0,49,0.00,,,0.00,0.000000,,2013-09-08 09:33:00,
2013-09-08 03:54:00,66.0,46.0,-100.00,ENE,61,5.0,10.0,48,0.00,,,0.00,0.000000,,2013-09-08 09:54:00,
2013-09-08 04:03:00,66.0,46.0,-100.00,ENE,61,5.0,10.0,48,0.00,,,0.00,0.000000,,2013-09-08 10:03:00,
2013-09-08 04:12:00,66.0,46.0,-100.00,ENE,61,5.0,10.0,48,0.00,,,0.00,0.000000,,2013-09-08 10:12:00,
2013-09-08 04:23:00,66.0,46.0,-100.00,ENE,61,5.0,10.0,48,0.00,,,0.00,0.000000,,2013-09-08 10:23:00,
2013-09-08 04:33:00,66.0,46.0,-100.00,ENE,61,5.0,10.0,48,0.00,,,0.00,0.000000,,2013-09-08 10:33:00,
2013-09-08 05:12:00,64.0,46.0,-100.00,ENE,69,7.0,11.0,52,0.00,,,0.00,0.000000,,2013-09-08 11:12:00,
2013-09-08 05:21:00,64.0,46.0,-100.00,ENE,69,7.0,11.0,52,0.00,,,0.00,0.000000,,2013-09-08 11:21:00,
2013-09-08 05:33:00,64.0,46.0,-100.00,ENE,69,7.0,11.0,52,0.00,,,0.00,0.000000,,2013-09-08 11:33:00,
2013-09-08 05:52:00,62.0,46.0,-100.00,East,92,4.0,8.0,55,0.00,,,0.00,0.000000,,2013-09-08 11:52:00,
2013-09-08 06:02:00,62.0,46.0,-100.00,East,92,4.0,8.0,55,0.00,,,0.00,0.000000,,2013-09-08 12:02:00,
2013-09-08 06:12:00,62.0,46.0,-100.00,East,92,4.0,8.0,55,0.00,,,0.00,0.000000,,2013-09-08 12:12:00,
2013-09-08 06:21:00,62.0,46.0,-100.00,East,92,4.0,8.0,55,0.00,,,0.00,0.000000,,2013-09-08 12:21:00,
2013-09-08 06:32:00,62.0,46.0,-100.00,East,92,4.0,8.0,55,0.00,,,0.00,0.000000,,2013-09-08 12:32:00,
2013-09-08 06:52:00,63.0,46.0,-100.00,East,101,5.0,7.0,54,0.00,,,0.00,0.000000,,2013-09-08 12:52:00,
2013-09-08 07:01:00,63.0,46.0,-100.00,East,101,5.0,7.0,54,0.00,,,0.00,0.000000,,2013-09-08 13:01:00,
2013-09-08 07:11:00,63.0,46.0,-100.00,East,101,5.0,7.0,54,0.00,,,0.00,0.000000,,2013-09-08 13:11:00,
2013-09-08 07:22:00,63.0,46.0,-100.00,East,101,5.0,7.0,54,0.00,,,0.00,0.000000,,2013-09-08 13:22:00,
2013-09-08 07:31:00,63.0,46.0,-100.00,East,101,5.0,7.0,54,0.00,,,0.00,0.000000,,2013-09-08 13:31:00,
2013-09-08 07:52:00,64.0,47.0,-100.00,NE,55,4.0,7.0,53,0.00,,,0.00,16.000000,,2013-09-08 13:52:00,
2013-09-08 08:02:00,64.0,47.0,-100.00,NE,55,4.0,7.0,53,0.00,,,0.00,16.000000,,2013-09-08 14:02:00,
2013-09-08 08:11:00,64.0,47.0,-100.00,NE,55,4.0,7.0,53,0.00,,,0.00,16.000000,,2013-09-08 14:11:00,
2013-09-08 08:22:00,64.0,47.0,-100.00,NE,55,4.0,7.0,53,0.00,,,0.00,16.000000,,2013-09-08 14:22:00,
2013-09-08 08:31:00,64.0,47.0,-100.00,NE,55,4.0,7.0,53,0.00,,,0.00,16.000000,,2013-09-08 14:31:00,
2013-09-08 08:34:00,68.0,47.0,-100.00,East,86,3.0,6.0,47,0.00,,,0.00,175.000000,,2013-09-08 14:34:00,
2013-09-08 08:52:00,68.0,47.0,-100.00,East,86,3.0,6.0,47,0.00,,,0.00,175.000000,,2013-09-08 14:52:00,
2013-09-08 09:02:00,68.0,47.0,-100.00,East,86,3.0,6.0,47,0.00,,,0.00,175.000000,,2013-09-08 15:02:00,
2013-09-08 09:12:00,68.0,47.0,-100.00,East,86,3.0,6.0,47,0.00,,,0.00,175.000000,,2013-09-08 15:12:00,
2013-09-08 09:23:00,68.0,47.0,-100.00,East,86,3.0,6.0,47,0.00,,,0.00,175.000000,,2013-09-08 15:23:00,
2013-09-08 09:34:00,69.0,48.0,-100.00,SSE,161,2.0,7.0,47,0.00,,,0.00,293.000000,,2013-09-08 15:34:00,
2013-09-08 09:55:00,69.0,48.0,-100.00,SSE,161,2.0,7.0,47,0.00,,,0.00,293.000000,,2013-09-08 15:55:00,
2013-09-08 10:04:00,69.0,48.0,-100.00,SSE,161,2.0,7.0,47,0.00,,,0.00,293.000000,,2013-09-08 16:04:00,
2013-09-08 10:14:00,69.0,48.0,-100.00,SSE,161,2.0,7.0,47,0.00,,,0.00,293.000000,,2013-09-08 16:14:00,
2013-09-08 10:23:00,69.0,48.0,-100.00,SSE,161,2.0,7.0,47,0.00,,,0.00,293.000000,,2013-09-08 16:23:00,
2013-09-08 10:53:00,71.0,47.0,-100.00,SSW,211,2.0,8.0,43,0.00,,,0.00,446.000000,,2013-09-08 16:53:00,
2013-09-08 11:03:00,71.0,47.0,-100.00,SSW,211,2.0,8.0,43,0.00,,,0.00,446.000000,,2013-09-08 17:03:00,
2013-09-08 11:12:00,71.0,47.0,-100.00,SSW,211,2.0,8.0,43,0.00,,,0.00,446.000000,,2013-09-08 17:12:00,
2013-09-08 11:23:00,71.0,47.0,-100.00,SSW,211,2.0,8.0,43,0.00,,,0.00,446.000000,,2013-09-08 17:23:00,
2013-09-08 11:33:00,71.0,47.0,-100.00,SSW,211,2.0,8.0,43,0.00,,,0.00,446.000000,,2013-09-08 17:33:00,
2013-09-08 11:53:00,76.0,47.0,-100.00,WNW,285,5.0,12.0,36,0.00,,,-99.99,754.000000,,2013-09-08 17:53:00,
2013-09-08 12:02:00,76.0,47.0,-100.00,WNW,285,5.0,12.0,36,0.00,,,-99.99,754.000000,,2013-09-08 18:02:00,
2013-09-08 12:13:00,76.0,47.0,-100.00,WNW,285,5.0,12.0,36,0.00,,,-99.99,754.000000,,2013-09-08 18:13:00,
2013-09-08 12:22:00,76.0,47.0,-100.00,WNW,285,5.0,12.0,36,0.00,,,-99.99,754.000000,,2013-09-08 18:22:00,
2013-09-08 12:32:00,76.0,47.0,-100.00,WNW,285,5.0,12.0,36,0.00,,,-99.99,754.000000,,2013-09-08 18:32:00,
2013-09-08 12:52:00,76.0,47.0,-100.00,WSW,251,7.0,15.0,36,0.00,,,0.00,594.000000,,2013-09-08 18:52:00,
2013-09-08 13:01:00,76.0,47.0,-100.00,WSW,251,7.0,15.0,36,0.00,,,0.00,594.000000,,2013-09-08 19:01:00,
2013-09-08 13:12:00,76.0,47.0,-100.00,WSW,251,7.0,15.0,36,0.00,,,0.00,594.000000,,2013-09-08 19:12:00,
2013-09-08 13:22:00,76.0,47.0,-100.00,WSW,251,7.0,15.0,36,0.00,,,0.00,594.000000,,2013-09-08 19:22:00,
2013-09-08 13:32:00,76.0,47.0,-100.00,WSW,251,7.0,15.0,36,0.00,,,0.00,594.000000,,2013-09-08 19:32:00,
2013-09-08 13:52:00,79.0,47.0,-100.00,West,266,8.0,16.0,33,0.00,,,0.00,654.000000,,2013-09-08 19:52:00,
2013-09-08 14:03:00,79.0,47.0,-100.00,West,266,8.0,16.0,33,0.00,,,0.00,654.000000,,2013-09-08 20:03:00,
2013-09-08 14:11:00,79.0,47.0,-100.00,West,266,8.0,16.0,33,0.00,,,0.00,654.000000,,2013-09-08 20:11:00,
2013-09-08 14:22:00,79.0,47.0,-100.00,West,266,8.0,16.0,33,0.00,,,0.00,654.000000,,2013-09-08 20:22:00,
2013-09-08 14:32:00,79.0,47.0,-100.00,West,266,8.0,16.0,33,0.00,,,0.00,654.000000,,2013-09-08 20:32:00,
2013-09-08 14:34:00,76.0,47.0,-100.00,SW,231,6.0,18.0,36,0.00,,,0.00,625.000000,,2013-09-08 20:34:00,
2013-09-08 14:53:00,76.0,47.0,-100.00,SW,231,6.0,18.0,36,0.00,,,0.00,625.000000,,2013-09-08 20:53:00,
2013-09-08 15:02:00,76.0,47.0,-100.00,SW,231,6.0,18.0,36,0.00,,,0.00,625.000000,,2013-09-08 21:02:00,
2013-09-08 15:12:00,76.0,47.0,-100.00,SW,231,6.0,18.0,36,0.00,,,0.00,625.000000,,2013-09-08 21:12:00,
2013-09-08 15:22:00,76.0,47.0,-100.00,SW,231,6.0,18.0,36,0.00,,,0.00,625.000000,,2013-09-08 21:22:00,
2013-09-08 15:54:00,76.0,47.0,-100.00,West,275,11.0,18.0,36,0.00,,,0.00,448.000000,,2013-09-08 21:54:00,
2013-09-08 16:04:00,76.0,47.0,-100.00,West,275,11.0,18.0,36,0.00,,,0.00,448.000000,,2013-09-08 22:04:00,
2013-09-08 16:13:00,76.0,47.0,-100.00,West,275,11.0,18.0,36,0.00,,,0.00,448.000000,,2013-09-08 22:13:00,
2013-09-08 16:24:00,76.0,47.0,-100.00,West,275,11.0,18.0,36,0.00,,,0.00,448.000000,,2013-09-08 22:24:00,
2013-09-08 16:33:00,76.0,47.0,-100.00,West,275,11.0,18.0,36,0.00,,,0.00,448.000000,,2013-09-08 22:33:00,
2013-09-08 16:34:00,70.0,47.0,-100.00,WSW,257,17.0,25.0,44,0.00,,,0.00,388.000000,,2013-09-08 22:34:00,
2013-09-08 16:53:00,70.0,47.0,-100.00,WSW,257,17.0,25.0,44,0.00,,,0.00,388.000000,,2013-09-08 22:53:00,
2013-09-08 17:04:00,70.0,47.0,-100.00,WSW,257,17.0,25.0,44,0.00,,,0.00,388.000000,,2013-09-08 23:04:00,
2013-09-08 17:12:00,70.0,47.0,-100.00,WSW,257,17.0,25.0,44,0.00,,,0.00,388.000000,,2013-09-08 23:12:00,
2013-09-08 17:22:00,70.0,47.0,-100.00,WSW,257,17.0,25.0,44,0.00,,,0.00,388.000000,,2013-09-08 23:22:00,
2013-09-08 17:52:00,64.0,50.0,-100.00,West,280,13.0,26.0,61,0.00,,,0.00,40.000000,,2013-09-08 23:52:00,
2013-09-08 18:02:00,64.0,50.0,-100.00,West,280,13.0,26.0,61,0.00,,,0.00,40.000000,,2013-09-09 00:02:00,
2013-09-08 18:11:00,64.0,50.0,-100.00,West,280,13.0,26.0,61,0.00,,,0.00,40.000000,,2013-09-09 00:11:00,
2013-09-08 18:21:00,64.0,50.0,-100.00,West,280,13.0,26.0,61,0.00,,,0.00,40.000000,,2013-09-09 00:21:00,
2013-09-08 18:32:00,64.0,50.0,-100.00,West,280,13.0,26.0,61,0.00,,,0.00,40.000000,,2013-09-09 00:32:00,
2013-09-08 18:52:00,64.0,50.0,-100.00,WSW,239,7.0,17.0,60,0.00,,,0.00,33.000000,,2013-09-09 00:52:00,
2013-09-08 19:01:00,64.0,50.0,-100.00,WSW,239,7.0,17.0,60,0.00,,,0.00,33.000000,,2013-09-09 01:01:00,
2013-09-08 19:12:00,64.0,50.0,-100.00,WSW,239,7.0,17.0,60,0.00,,,0.00,33.000000,,2013-09-09 01:12:00,
2013-09-08 19:21:00,64.0,50.0,-100.00,WSW,239,7.0,17.0,60,0.00,,,0.00,33.000000,,2013-09-09 01:21:00,
2013-09-08 19:31:00,64.0,50.0,-100.00,WSW,239,7.0,17.0,60,0.00,,,0.00,33.000000,,2013-09-09 01:31:00,
2013-09-08 19:52:00,64.0,51.0,-100.00,WSW,249,3.0,14.0,62,0.00,,,0.00,21.000000,,2013-09-09 01:52:00,
2013-09-08 20:02:00,64.0,51.0,-100.00,WSW,249,3.0,14.0,62,0.00,,,0.00,21.000000,,2013-09-09 02:02:00,
2013-09-08 20:11:00,64.0,51.0,-100.00,WSW,249,3.0,14.0,62,0.00,,,0.00,21.000000,,2013-09-09 02:11:00,
2013-09-08 20:21:00,64.0,51.0,-100.00,WSW,249,3.0,14.0,62,0.00,,,0.00,21.000000,,2013-09-09 02:21:00,
2013-09-08 20:32:00,64.0,51.0,-100.00,WSW,249,3.0,14.0,62,0.00,,,0.00,21.000000,,2013-09-09 02:32:00,
2013-09-08 20:34:00,64.0,51.0,-100.00,WSW,248,7.0,11.0,62,0.00,,,0.00,0.000000,,2013-09-09 02:34:00,
2013-09-08 20:53:00,64.0,51.0,-100.00,WSW,248,7.0,11.0,62,0.00,,,0.00,0.000000,,2013-09-09 02:53:00,
2013-09-08 21:02:00,64.0,51.0,-100.00,WSW,248,7.0,11.0,62,0.00,,,0.00,0.000000,,2013-09-09 03:02:00,
2013-09-08 21:12:00,64.0,51.0,-100.00,WSW,248,7.0,11.0,62,0.00,,,0.00,0.000000,,2013-09-09 03:12:00,
2013-09-08 21:22:00,64.0,51.0,-100.00,WSW,248,7.0,11.0,62,0.00,,,0.00,0.000000,,2013-09-09 03:22:00,
2013-09-08 21:55:00,63.0,51.0,-100.00,WNW,284,6.0,13.0,65,0.00,,,0.00,0.000000,,2013-09-09 03:55:00,
2013-09-08 22:03:00,63.0,51.0,-100.00,WNW,284,6.0,13.0,65,0.00,,,0.00,0.000000,,2013-09-09 04:03:00,
2013-09-08 22:14:00,63.0,51.0,-100.00,WNW,284,6.0,13.0,65,0.00,,,0.00,0.000000,,2013-09-09 04:14:00,
2013-09-08 22:24:00,63.0,51.0,-100.00,WNW,284,6.0,13.0,65,0.00,,,0.00,0.000000,,2013-09-09 04:24:00,
2013-09-08 22:33:00,63.0,51.0,-100.00,WNW,284,6.0,13.0,65,0.00,,,0.00,0.000000,,2013-09-09 04:33:00,
2013-09-08 22:34:00,62.0,51.0,-100.00,WSW,244,2.0,8.0,67,0.00,,,0.00,0.000000,,2013-09-09 04:34:00,
2013-09-08 22:54:00,62.0,51.0,-100.00,WSW,244,2.0,8.0,67,0.00,,,0.00,0.000000,,2013-09-09 04:54:00,
2013-09-08 23:03:00,62.0,51.0,-100.00,WSW,244,2.0,8.0,67,0.00,,,0.00,0.000000,,2013-09-09 05:03:00,
2013-09-08 23:13:00,62.0,51.0,-100.00,WSW,244,2.0,8.0,67,0.00,,,0.00,0.000000,,2013-09-09 05:13:00,
2013-09-08 23:23:00,62.0,51.0,-100.00,WSW,244,2.0,8.0,67,0.00,,,0.00,0.000000,,2013-09-09 05:23:00,
2013-09-08 23:53:00,61.0,51.0,-100.00,West,268,1.0,4.0,69,0.00,,,0.00,0.000000,,2013-09-09 05:53:00,